SCP
0 0 0 0 0 0 0 0 0 0 0 0 0 0 0 0 0 0 0 0 0 0 0 0 0 0 0 0 0 0 0 0 0 0 0 0 0 0 0 0 0 0 0
0 0 0 0 0 0 0 0 0 0 0 0 0 0 0 0 0 0 0 0 0 0 0 0 0 0 0 0 0 0 0 0 0 0 0 0 0 0 0 0 0 0 0
0 0 0 0 0 0 0 0 0 0 0 0 0 0 0 0 0 0 0 0 0 0 0 0 0 0 0 0 0 0 0 0 0 0 0 0 0 0 0 0 0 0 0
0 0 0 0 0 0 0 0 0 0 0 0 0 0 0 0 0 0 0 0 0 0 0 0 0 0 0 0 0 0 0 0 0 0 0 0 0 0 0 0 0 0 0
-0 -0 0 0 0 0 0 0 0 0 0 0 0 0 0 0 0 0 0 0 0 0 0 0 0 0 0 0 0 0 0 0 0 0 0 0 0 0 0 0 0 0 0
-0 0 0 0 0 0 0 0 0 0 0 0 0 0 0 0 0 0 0 0 0 0 0 0 0 0 0 0 0 0 0 0 0 0 0 0 0 0 0 0 0 0 0
0 0 0 0 0 0 0 0 0 0 0 0 0 0 0 0 0 0 0 0 0 0 0 0 0 0 0 0 0 0 0 0 0 0 0 0 0 0 0 0 0 0 0
0 0 0 0 0 0 0 0 0 0 0 0 0 0 0 0 0 0 0 0 0 0 0 0 0 0 0 0 0 0 0 0 0 0 0 0 0 0 0 0 0 0 0
0 0 0 0 0 0 0 0 0 0 0 0 0 0 0 0 0 0 0 0 0 0 0 0 0 0 0 0 0 0 0 0 0 0 0 0 0 0 0 0 0 0 -0
0 0 0 0 0 0 0 0 0 0 0 0 0 0 0 0 0 0 0 0 0 0 0 0 0 0 0 0 0 0 0 0 0 0 0 0 0 0 0 0 0 -0 -0
0 0 0 0 0 0 0 0 0 0 0 0 0 0 0 0 0 0 0 0 0 0 0 0 0 0 0 0 0 0 0 0 0 0 0 0 0 0 0 0 0 0 0
0 0 0 0 0 0 0 0 0 0 0 0 0 0 0 0 0 0 0 0 0 0 0 0 0 0 0 0 0 0 0 0 0 0 0 0 0 0 0 0 0 0 0
0 0 0 0 0 0 0 0 0 0 0 0 0 0 0 0 0 0 0 0 0 0 0 0 0 0 0 0 0 0 0 0 0 0 0 0 0 0 0 0 0 0 0
0 0 0 0 0 0 0 0 0 0 0 0 0 0 0 0 0 0 0 0 0 0 0 0 0 0 0 0 0 0 0 0 0 0 0 0 0 0 0 0 0 0 0
0 0 0 0 0 0 0 0 0 0 0 0 0 0 0 0 0 0 0 0 0 0 0 0 0 0 0 0 0 0 0 0 0 0 0 0 0 0 0 0 0 0 0
-0 -0 0 0 0 0 0 0 0 0 0 0 0 0 0 0 0 0 0 0 0 0 0 0 0 0 0 0 0 0 0 0 0 0 0 0 0 0 0 0 0 0 0
-0 -0 -0 0 0 0 0 0 0 0 0 0 0 0 0 0 0 0 0 0 0 0 0 0 0 0 0 0 0 0 0 0 0 0 0 0 0 0 0 0 0 0 0
0 0 0 0 0 0 0 0 0 0 0 0 0 0 0 0 0 0 0 0 0 0 0 0 0 0 0 0 0 0 0 0 0 0 0 0 0 0 0 0 0 0 0
0 0 0 0 0 0 0 0 0 0 0 0 0 0 0 0 0 0 0 0 0 0 0 0 0 0 0 0 0 0 0 0 0 0 0 0 0 0 0 0 0 0 0
0 0 0 0 0 0 0 0 0 0 0 0 0 0 0 0 0 0 0 0 0 0 0 0 0 0 0 0 0 0 0 0 0 0 0 0 0 0 0 0 0 0 0
0 0 0 0 0 0 0 0 0 0 0 0 0 0 0 0 0 0 0 0 0 0 0 0 0 0 0 0 0 0 0 0 0 0 0 0 0 0 0 0 0 0 0
0 0 0 0 0 0 0 0 0 0 0 0 0 0 0 0 0 0 0 0 0 0 0 0 0 0 0 0 0 0 0 0 0 0 0 0 0 0 0 0 0 0 0
0 0 0 0 0 0 0 0 0 0 0 0 0 0 0 0 0 0 0 0 0 0 0 0 0 0 0 0 0 0 0 0 0 0 0 0 0 0 0 0 0 0 0
0 0 0 0 0 0 0 0 0 0 0 0 0 0 0 0 0 0 0 0 0 0 0 0 0 0 0 0 0 0 0 0 0 0 0 0 0 0 0 0 0 0 0
0 0 0 0 0 0 0 0 0 0 0 0 0 0 0 0 0 0 0 0 0 0 0 0 0 0 0 0 0 0 0 0 0 0 0 0 0 0 0 0 0 0 0
0 0 0 0 0 0 0 0 0 0 0 0 0 0 0 0 0 0 0 0 0 0 0 0 0 0 0 0 0 0 0 0 0 0 0 0 0 0 0 0 0 0 0
Wind_Speed
3 3 2 3 3 3 3 3 3 2 3 3 2 2 2 2 2 2 1 2 2 1 1 2 2 2 2 1 2 2 2 3 3 1 1 1 1 1 1 1 1 1 1
3 3 3 2 3 3 3 3 3 3 3 3 3 3 2 2 2 3 2 2 2 2 1 1 1 2 2 2 2 2 2 2 3 2 1 0 0 0 0 1 1 1 0
2 3 2 2 3 3 3 3 3 3 3 3 3 3 3 3 3 3 3 3 2 2 2 3 2 2 2 2 2 2 2 2 2 3 1 0 0 0 1 1 1 1 0
2 2 3 3 3 3 3 3 3 3 3 4 4 4 4 3 4 3 3 3 3 2 2 3 3 4 4 4 3 3 3 3 2 2 1 1 0 0 1 0 0 1 1
2 3 3 3 3 3 3 3 3 4 4 4 3 3 3 3 4 4 4 4 3 2 2 2 3 5 6 5 4 4 5 3 3 2 2 1 1 1 2 1 1 0 1
3 4 3 2 3 3 3 3 3 3 3 3 4 4 4 4 6 8 5 4 4 4 3 3 3 3 5 6 7 8 8 6 5 4 3 3 4 3 2 2 2 1 1
3 3 3 3 3 3 3 3 3 3 3 3 4 4 4 5 8 8 8 5 4 4 4 3 3 3 3 3 4 5 7 8 9 6 6 6 5 6 5 3 3 3 3
3 3 3 3 4 3 3 4 4 3 3 4 4 4 4 6 8 8 8 5 4 4 5 5 5 4 4 4 3 3 3 4 5 5 6 6 6 6 6 5 4 2 1
3 4 4 4 4 4 4 5 4 3 3 3 3 4 4 6 7 8 7 3 3 4 5 5 5 5 7 6 4 4 3 4 4 6 6 6 6 7 6 4 3 2 2
4 5 4 4 5 5 6 5 4 4 4 3 3 4 5 5 7 8 7 3 4 4 4 4 8 8 8 8 5 5 6 5 3 3 3 4 4 5 8 6 6 4 2
4 4 4 4 5 6 5 4 3 4 3 4 4 4 5 6 7 8 8 4 5 5 4 4 5 9 10 9 8 6 8 6 4 4 3 2 2 3 4 5 5 5 4
3 3 4 4 4 4 4 4 3 4 4 4 3 4 4 5 6 7 9 8 7 5 5 5 5 9 9 9 7 8 9 6 3 3 3 3 3 4 4 5 5 5 5
3 4 4 4 4 4 4 5 3 4 4 4 4 4 4 3 5 8 9 9 9 6 5 7 8 9 8 7 9 10 7 4 4 4 5 5 4 4 3 3 3 3 3
4 4 4 4 3 3 3 4 4 4 4 4 5 5 4 3 3 4 4 5 6 5 4 6 7 6 5 6 6 5 5 5 5 5 5 4 2 2 3 3 3 3 2
4 4 4 4 4 4 4 4 6 6 7 6 6 6 5 6 7 7 5 4 4 4 3 2 2 2 2 3 3 3 4 4 5 4 4 4 3 3 3 3 3 3 4
4 4 3 3 3 3 3 4 6 7 9 10 9 8 7 8 8 9 9 8 7 7 4 3 4 4 5 5 5 4 4 5 5 5 5 5 5 5 4 3 3 4 5
4 4 3 3 3 3 3 4 4 4 6 8 9 9 8 8 8 8 9 8 7 7 4 4 5 5 5 5 5 5 5 5 5 5 5 5 5 5 4 4 4 4 5
5 5 5 4 4 4 4 4 4 4 4 4 6 8 9 8 8 8 7 4 3 5 4 5 5 5 5 5 5 5 5 4 4 4 5 5 5 5 5 5 5 6 5
4 4 4 3 3 4 4 4 4 5 4 4 3 4 6 6 6 6 6 4 5 5 5 5 5 5 5 5 5 5 4 4 5 4 5 5 5 5 5 5 5 7 6
4 6 5 3 3 3 3 4 4 4 4 4 4 4 3 2 2 4 4 4 5 5 5 5 5 5 5 5 5 4 4 4 5 5 5 5 5 5 6 6 6 6 6
3 4 6 4 3 3 4 4 4 4 4 4 5 4 5 4 5 5 5 5 5 5 5 5 5 5 5 4 5 5 6 5 5 5 5 5 5 5 5 5 6 6 5
3 3 3 4 3 3 4 4 4 4 4 5 4 4 7 4 4 4 5 5 5 5 5 5 5 5 5 5 5 5 6 6 6 6 6 6 5 5 5 5 5 5 5
3 3 3 3 3 4 4 3 3 4 4 4 4 4 4 4 4 5 5 4 4 4 4 4 4 4 4 4 5 5 6 7 6 6 6 6 6 5 5 6 7 6 6
3 3 4 4 3 3 4 4 4 4 4 4 4 4 4 4 4 4 4 3 3 3 3 4 4 6 6 5 4 5 5 5 5 5 7 7 6 6 5 6 6 7 7
3 3 3 4 4 4 4 4 4 4 4 4 4 4 4 4 4 4 4 3 4 4 4 4 4 5 6 7 6 5 6 8 7 5 5 6 7 7 6 6 6 6 6
3 3 3 3 3 4 4 4 4 4 4 4 4 3 4 4 4 4 3 3 3 3 4 4 4 5 6 6 6 7 7 8 8 7 5 5 6 6 6 5 6 6 6
Wind_Direction
199 195 187 192 189 180 185 196 198 196 185 184 182 174 168 167 156 143 154 152 154 168 167 162 183 172 157 155 147 144 146 142 160 248 289 315 36 19 25 38 52 56 41
199 191 191 189 180 185 199 204 195 195 198 196 184 178 183 180 170 166 172 165 166 179 188 166 193 163 157 153 150 159 160 159 157 184 242 308 309 272 45 34 37 78 78
186 180 177 181 190 201 207 204 195 193 200 198 189 192 193 188 183 186 180 177 180 192 191 187 199 167 180 172 161 165 168 158 150 158 186 179 344 21 58 24 32 20 349
178 178 186 202 205 206 201 197 200 194 195 202 204 205 201 193 189 186 181 183 188 199 202 201 201 193 196 185 178 177 166 152 142 142 160 173 202 307 127 179 353 352 305
186 196 211 211 203 198 200 200 205 203 203 200 201 205 202 198 198 188 187 188 188 202 216 219 219 216 209 195 186 180 168 162 155 159 173 167 201 189 209 202 191 270 294
198 213 213 199 196 205 211 203 203 210 208 195 203 206 209 221 216 205 194 191 192 197 213 229 235 233 227 212 201 188 180 176 178 177 187 198 214 207 188 179 169 157 270
210 218 212 205 208 217 215 205 211 215 208 207 212 212 220 227 223 216 209 195 196 204 209 213 225 226 223 208 209 205 206 204 195 185 192 206 202 199 179 184 196 197 216
223 222 219 211 217 219 212 217 224 218 213 214 216 216 225 239 230 223 216 203 203 213 214 212 211 219 212 198 193 200 218 224 217 205 206 214 208 192 185 188 190 185 236
237 231 223 213 214 214 220 226 222 214 220 223 218 211 222 246 237 226 211 192 207 224 226 220 214 216 222 204 190 200 222 242 233 215 217 219 211 194 171 144 148 155 225
244 241 229 213 212 216 224 226 220 213 218 221 233 222 219 234 237 229 212 193 208 226 231 229 226 222 224 209 198 201 215 230 215 213 224 228 216 201 187 183 181 178 189
254 253 239 221 219 221 222 219 216 213 212 219 231 239 231 232 236 230 217 204 206 215 224 229 231 227 230 224 214 212 224 220 203 202 212 217 208 203 204 201 196 189 191
257 256 253 239 232 226 214 218 212 206 212 224 231 246 245 238 232 232 225 224 218 211 224 228 232 229 229 226 223 227 230 218 190 191 207 220 221 220 217 211 210 211 214
268 261 258 252 238 224 212 212 210 207 212 225 225 236 247 242 237 234 231 230 228 227 229 229 233 234 231 230 230 229 222 207 196 208 219 226 223 219 208 204 210 212 227
264 265 260 254 252 239 222 212 208 211 215 222 227 236 243 244 238 230 226 228 230 234 237 237 237 238 234 234 236 231 218 208 207 216 223 226 217 206 206 197 202 200 214
263 265 267 257 243 239 232 223 218 219 214 217 224 222 223 236 239 229 219 217 211 216 207 221 219 215 225 233 231 229 219 209 213 216 215 217 216 215 219 203 198 194 207
267 267 260 258 249 240 242 260 245 237 238 234 232 229 235 239 240 233 231 230 223 210 197 210 221 222 224 225 225 225 222 219 215 211 214 216 218 219 220 211 203 205 218
252 259 259 256 251 244 238 239 261 268 252 243 238 237 238 240 237 232 231 227 220 206 212 219 224 224 227 226 226 224 225 221 211 209 214 218 219 220 219 218 215 218 225
260 260 258 253 248 243 241 240 239 241 253 255 245 241 241 243 241 233 224 211 220 215 222 224 227 227 225 225 227 227 226 219 211 213 218 221 219 219 219 221 219 221 226
262 264 260 257 251 247 246 243 243 241 244 252 256 247 241 238 236 226 202 207 216 223 226 228 228 225 225 225 228 225 219 218 214 210 215 219 221 222 224 224 224 227 227
263 268 272 267 258 251 247 244 244 243 244 243 243 240 222 209 219 220 217 221 222 226 226 228 229 227 224 223 223 219 217 222 217 217 219 219 220 222 226 225 225 226 229
268 268 271 272 259 253 249 245 243 241 242 243 243 235 219 217 221 223 223 224 227 229 228 228 229 227 225 223 219 220 221 225 221 218 219 220 219 223 226 225 226 228 231
262 263 261 259 260 256 256 251 245 243 243 245 250 241 231 229 228 230 231 233 232 230 227 223 226 224 223 220 217 219 223 226 224 220 222 222 222 224 227 227 227 226 227
264 266 272 270 264 263 262 256 249 246 248 249 243 239 232 235 236 237 237 237 234 232 229 225 227 230 229 224 220 218 222 225 224 218 217 222 222 222 224 228 229 228 227
268 265 268 271 270 265 261 259 254 249 246 247 243 238 237 239 241 242 243 242 240 242 235 229 230 232 230 230 230 227 229 228 224 222 216 218 221 222 224 228 230 229 227
287 279 275 272 268 266 267 267 262 256 251 246 245 243 241 239 242 246 246 243 239 240 242 238 234 231 228 230 233 233 228 226 226 225 217 215 216 217 221 228 230 228 228
308 302 294 287 280 274 267 267 265 260 253 251 251 249 246 242 244 246 245 243 242 246 247 242 236 237 236 236 234 230 228 226 223 221 217 212 213 217 216 224 227 226 225